User: anonymous   Login
Location: Unspecified
(0.0000°N, 0.0000°E)
Time: 08:53:02
(UTC+00:00)
Language:

OPTUS-X - Orbit

View from above orbital plane
View from above orbital plane
View from above satellite
View from above satellite

Ground track
Ground track

The orbit is defined by the following mean orbital elements,

1 62006U          26145.61711272 +.00000000 +00000-0 +00000-0 0 00002
2 62006   0.0193 307.3167 0001536 150.1074 164.3370  1.00271506    05
Epoch (UTC): 25 May 2026 14:48:38
Eccentricity: 0.0001536
inclination: 0.0193°
perigee height: 35780 km
apogee height: 35793 km
right ascension of ascending node: 307.3167°
argument of perigee: 150.1074°
revolutions per day: 1.00271506
mean anomaly at epoch: 164.3370°

The dashed part of the orbit path shows where the satellite is in the earth's shadow,  

DLR